Weather History for KSDL - September, 2013

Change the Weather History Date:

Wednesday, September 4, 2013

  Actual Average (KPHX) Record (KPHX)
Temperature  
Mean Temperature 97 °F 92 °F  
Max Temperature 107 °F 103 °F 112 °F (1945)
Min Temperature 87 °F 80 °F 60 °F (1921)
Degree Days  
Heating Degree Days 0 0  
Month to date heating degree days 0  
Since 1 July heating degree days 0  
Cooling Degree Days 32 27  
Month to date cooling degree days 108  
Year to date cooling degree days 3577  
Growing Degree Days 47 (Base 50)    
Moisture  
Dew Point 56 °F    
Average Humidity 27    
Maximum Humidity 43    
Minimum Humidity 14    
Precipitation  
Precipitation 0.00 in 0.02 in 2.91 in (1939)
Month to date precipitation 0.10  
Year to date precipitation 5.38  
Snow  
Snow 0.00 in - - ()
Month to date snowfall  
Year to date snowfall  
Since 1 July snowfall  
Snow Depth -    
Sea Level Pressure  
Sea Level Pressure 29.80 in    
Wind  
Wind Speed 3 mph (South)    
Max Wind Speed 8 mph    
Max Gust Speed 16 mph    
Visibility 10 miles    
Events      
T = Trace of Precipitation, MM = Missing Value Source: NWS Daily Summary

Daily Weather History Graph

Daily Weather History Graph

Search for Another Location

Airport or City:

Trip Planner

Search our weather history database for the weather conditions in past years. The results will help you decide how hot, cold, wet, or windy it might be!

Date:

Astronomy

Sep. 04, 2013 Rise Set
Actual Time 6:03 AM MST 6:48 PM MST
Civil Twilight 5:38 AM MST 7:13 PM MST
Nautical Twilight 5:08 AM MST 7:43 PM MST
Astronomical Twilight 4:38 AM MST 8:14 PM MST
Moon 5:19 AM MST (9/4) 6:12 PM MST (9/4)
Length of Visible Light 13h 35m
Length of Day
12h 44m
Waning Crescent, 1% of the Moon is Illuminated
Sep 4
Waning Crescent
Sep 5
New
Sep 12
First Quarter
Sep 19
Full
Sep 26
Last Quarter

Hourly Weather History & Observations

Time (MST) Temp. Heat Index Dew Point Humidity Pressure Visibility Wind Dir Wind Speed Gust Speed Precip Events Conditions
12:53 AM 91.9 °F 91.2 °F 59.0 °F 33% 29.82 in 10.0 mi ESE 3.5 mph - N/A   Clear
1:53 AM 90.0 °F 89.7 °F 60.1 °F 37% 29.82 in 10.0 mi SSW 3.5 mph - N/A   Clear
2:53 AM 88.0 °F 87.6 °F 60.1 °F 39% 29.81 in 10.0 mi SSE 4.6 mph - N/A   Clear
3:53 AM 88.0 °F 87.6 °F 60.1 °F 39% 29.80 in 10.0 mi Calm Calm - N/A   Clear
4:53 AM 88.0 °F 87.9 °F 61.0 °F 40% 29.81 in 10.0 mi Calm Calm - N/A   Clear
5:53 AM 87.1 °F 87.5 °F 62.1 °F 43% 29.83 in 10.0 mi Calm Calm - N/A   Clear
6:53 AM 87.1 °F 87.0 °F 61.0 °F 41% 29.85 in 10.0 mi Calm Calm - N/A   Clear
7:53 AM 89.1 °F 89.3 °F 62.1 °F 40% 29.86 in 10.0 mi Calm Calm - N/A   Clear
8:53 AM 91.9 °F 91.8 °F 61.0 °F 35% 29.87 in 10.0 mi Calm Calm - N/A   Clear
9:53 AM 93.9 °F 93.2 °F 59.0 °F 31% 29.88 in 10.0 mi Calm Calm - N/A   Clear
10:53 AM 98.1 °F 97.2 °F 57.9 °F 26% 29.86 in 10.0 mi East 3.5 mph - N/A   Clear
11:53 AM 100.0 °F 98.3 °F 55.0 °F 22% 29.83 in 10.0 mi Calm Calm - N/A   Clear
12:53 PM 105.1 °F 104.4 °F 55.9 °F 20% 29.81 in 10.0 mi Variable 6.9 mph - N/A   Clear
1:53 PM 105.1 °F 103.3 °F 53.1 °F 18% 29.78 in 10.0 mi Variable 4.6 mph - N/A   Clear
2:53 PM 106.0 °F - 48.0 °F 14% 29.75 in 10.0 mi Variable 4.6 mph 16.1 mph N/A   Clear
3:53 PM 107.1 °F - 50.0 °F 15% 29.74 in 10.0 mi South 8.1 mph - N/A   Clear
4:53 PM 107.1 °F - 50.0 °F 15% 29.72 in 10.0 mi South 8.1 mph - N/A   Clear
5:53 PM 105.1 °F - 50.0 °F 16% 29.72 in 10.0 mi SSW 5.8 mph - N/A   Clear
6:53 PM 104.0 °F - 50.0 °F 16% 29.73 in 10.0 mi WSW 3.5 mph - N/A   Clear
7:53 PM 102.0 °F - 51.1 °F 18% 29.75 in 10.0 mi Calm Calm - N/A   Clear
8:53 PM 100.0 °F - 52.0 °F 20% 29.76 in 10.0 mi Calm Calm - N/A   Clear
9:53 PM 99.0 °F - 52.0 °F 21% 29.77 in 10.0 mi Calm Calm - N/A   Clear
10:53 PM 96.1 °F 93.8 °F 54.0 °F 24% 29.78 in 10.0 mi North 5.8 mph - N/A   Clear
11:53 PM 93.9 °F 92.2 °F 55.9 °F 28% 29.79 in 10.0 mi Calm Calm - N/A   Clear